Location: Newark
(35.2672°N, 80.7344°W)
Time: 00:24:18
(UTC+00:00)

Vanguard 1 - Pass Details

Date: 31 January 2020
Orbit: 650 x 3833 km, 34.2° (Epoch: 25 February)

Event Time Altitude Azimuth Distance (km) Brightness Sun altitude
Rises 01:56:51 0° 272° (W) 3,098 13.6 -38.5°
Reaches altitude 10° 01:59:13 10° 259° (W) 2,332 12.6 -39.0°
Enters shadow 02:01:26 21° 236° (WSW) 1,847 11.8 -39.4°
